SPOT 1

operational
NORAD ID: 16613 Int'l Des: 1986-019 Owner: CNES Country: F
LEORETROGRADE

SPOT 1について

説明を読み込み中...

リアルタイム位置

3D地球を読み込み中...

次回通過

高度履歴

Altitude vs Time

uPlot chart will show altitude changes over time

軌道要素

1 16613U 86019A 26063.38250251 .00001975 00000-0 29133-3 0 9997
2 16613 98.6590 349.8962 0128085 233.5982 125.3355 14.71207922795586
Epoch: Mar 4, 2026 • Age: 22 hours

現在のステータス

高度 702.6 km
速度 7.48 km/s
衛星直下点 -10.88°S, 143.36°W
打ち上げ日 Feb 22, 1986
運用期間 40 years
タイプ other

技術仕様

分類 Payload
質量 1900.00 kg
乾燥質量 1750.00 kg
総質量 1900.00 kg
長さ 4.50 m
直径 2.00 m
スパン 8.10 m
形状 Box + Pan
製造者 MATT
バスタイプ SPOT
フェーズステータス In Orbit
所有者/国 CNES/F

大規模コンステレーション

Loading constellations...